Regional Weather Roundup
Issued by NWS

Home | Current Version | Previous Version | Graphics & Text | Print | Product List | Glossary On
Versions: 1 2 3 4 5 6 7 8 9 10 11 12 13 14 15 16 17 18 19 20 21 22 23 24 25 26 27
000
ASUS45 KPSR 301410
RWRAZ

ARIZONA HOURLY REGIONAL WEATHER ROUNDUP
NATIONAL WEATHER SERVICE PHOENIX AZ
700 AM MST MON MAY 30 2016

NOTE: FAIR INDICATES FEW OR NO CLOUDS BELOW 12,000 FEET WITH NO
SIGNIFICANT WEATHER AND/OR OBSTRUCTIONS TO VISIBILITY.

AZZ001>003-036-301500-
NORTHWEST ARIZONA

CITY           SKY/WX    TMP DP  RH WIND       PRES   REMARKS
KINGMAN        SUNNY     64  23  21 SE3       30.01R
$$

AZZ004>008-015-016-018-301500-
NORTH CENTRAL ARIZONA

CITY           SKY/WX    TMP DP  RH WIND       PRES   REMARKS
GRAND CANYON   SUNNY     49  22  34 CALM      30.18R
WILLIAMS       SUNNY     50  21  32 S8        30.25S
PRESCOTT       SUNNY     57  18  21 NW5       30.09R
FLAGSTAFF      SUNNY     49  25  39 CALM      30.20S
PAYSON         SUNNY     61  21  21 VRB3      30.13R
PAGE           MOSUNNY   69  27  20 CALM      30.03R
$$

AZZ009>014-017-301500-
NORTHEAST ARIZONA

CITY           SKY/WX    TMP DP  RH WIND       PRES   REMARKS
WINSLOW        PTSUNNY   55  21  26 SE8       30.12S
SAINT JOHNS    MOSUNNY   56  23  27 SE3       30.15S
WINDOW ROCK    MOSUNNY   51  19  28 CALM      30.20S
SHOW LOW       MOSUNNY   55  19  24 CALM      30.19S
$$

AZZ023-301500-
GREATER PHOENIX AREA

CITY           SKY/WX    TMP DP  RH WIND       PRES   REMARKS
PHOENIX        MOSUNNY   72  20  14 SE5       29.90R
BUCKEYE        SUNNY     68  10  10 N5        29.92R
GLENDALE       SUNNY     70  21  16 CALM      29.92R
LUKE AFB       SUNNY     71  27  19 N3        29.90R
DEER VALLEY    SUNNY     69  21  16 E6        29.92R
SCOTTSDALE     SUNNY     74  21  13 CALM      29.94R
MESA-FALCON    SUNNY    N/A N/A N/A E7        29.90R
MESA-GATEWAY   MOSUNNY   70  27  19 E6        29.93R
CHANDLER       SUNNY     73  19  13 CALM      29.92R
$$

AZZ027-028-301500-
SOUTHWEST MARICOPA COUNTY AND PINAL COUNTY

CITY           SKY/WX    TMP DP  RH WIND       PRES   REMARKS
CASA GRANDE    SUNNY     68  25  19 CALM      29.94R
GILA BEND      FAIR      73  24  16 SE9       29.89R
$$

AZZ503-504-507>509-301500-
SOUTHEAST ARIZONA

CITY           SKY/WX    TMP DP  RH WIND       PRES   REMARKS
TUCSON         SUNNY     71  32  23 S5        30.00S
DAVIS-MONTHAN  SUNNY     70  34  26 SE5       29.99R
NOGALES        SUNNY     68  49  50 CALM      30.05S
SIERRA VISTA   SUNNY     68  51  53 SE6       30.10S
DOUGLAS        SUNNY     70  46  42 SE6       30.08R
SAFFORD        MOSUNNY   72  18  13 CALM      30.00S
$$

AZZ020-021-025-026-031-301500-
SOUTHWEST ARIZONA

CITY           SKY/WX    TMP DP  RH WIND       PRES   REMARKS
YUMA           SUNNY     72  47  40 N5        29.87R
$$

CAZ031-033-041-043-047-048-061-301500-
SOUTHERN CALIFORNIA

CITY           SKY/WX    TMP DP  RH WIND       PRES   REMARKS
DOWNTOWN L.A.  CLOUDY    60  54  80 CALM      30.01R
L.A. AIRPORT   CLOUDY    60  54  80 N5        30.01R
SAN DIEGO      CLOUDY    62  58  86 N5        30.02R
BURBANK        MOSUNNY   55  53  93 CALM      30.01R
ONTARIO        CLOUDY    59  51  75 W3        30.01R
RIVERSIDE      CLOUDY    60  52  74 CALM      30.01S
PALM SPRINGS   SUNNY     69  53  56 SE3       29.89R
EL CENTRO NAS  SUNNY     69  51  52 S5        29.87R
IMPERIAL       SUNNY     70  50  49 CALM      29.85R
BLYTHE         SUNNY     73  41  31 VRB3      29.86R
NEEDLES        SUNNY     72  27  18 N3        29.88R
$$

NVZ020-UTZ003-301500-
SOUTHERN NEVADA-UTAH

CITY           SKY/WX    TMP DP  RH WIND       PRES   REMARKS
LAS VEGAS      MOSUNNY   73  22  14 CALM      29.90R
SALT LAKE CITY MOSUNNY   61  44  53 SE10      30.10S
$$

NMZ009-TXZ055-301500-
NEW MEXICO-WEST TEXAS

CITY           SKY/WX    TMP DP  RH WIND       PRES   REMARKS
ALBUQUERQUE    PTSUNNY   61  44  53 NW5       30.14R
EL PASO        MOSUNNY   79  40  24 N3        30.06R
$$


........................KEY........................
SKY/WX - SKY CONDITION/WEATHER
TMP    - TEMPERATURE IN FAHRENHEIT
DP     - DEW POINT IN FAHRENHEIT
RH     - RELATIVE HUMIDITY IN PERCENT
WIND   - DIRECTION AND SPEED IN MILES PER HOUR (MPH)
VRB    - VARIABLE WIND DIRECTION
PRES   - MEAN SEA LEVEL PRESSURE IN INCHES OF MERCURY
         F - FALLING PRESSURE   R - RISING PRESSURE
         S - STEADY PRESSURE
VSB    - VISIBILITY IN MILES
HX     - HEAT INDEX IN FAHRENHEIT
WCI    - WIND CHILL INDEX IN FAHRENHEIT
TC     - TEMPERATURE IN CELSIUS WHICH IS ALSO KNOWN AS
         TEMPERATURE IN CENTIGRADE
AFB    - AIR FORCE BASE
         LUKE AFB IS LUKE AIR FORCE BASE
         DAVIS-MONTHAN IS DAVIS-MONTHAN AIR FORCE BASE
NAS    - NAVAL AIR STATION
         EL CENTRO NAS IS EL CENTRO NAVAL AIR STATION
N/A    - NOT AVAILABLE





USA.gov is the U.S. government's official web portal to all federal, state and local government web resources and services.